Zurück zum Katalog

STARLINK-11252

AktivKommunikationVLEO
NORAD 61051·PAYLOAD·🇺🇸 United States

Gestartet Sep 13, 2024 von Vandenberg Space Force Base

Loading…

Nächste Überflüge (nächste 24 Stunden)

TLE

AktuellSource: CelesTrak SupGP

Epoche: Sep 15, 2026, 02:08 UTC

1 61051C 24164B   26258.08937500  .00066488  00000+0  54735-3 0  2581
2 61051  53.1562  97.5604 0001084  94.0779  20.3284 15.69691153    13

Verfolge STARLINK-11252 in Echtzeit mit AllMySat

Download on the App Store